[[{"header":{"parameterUnit":"m.s-1","parameterCategory":1,"la1":30.2991,"la2":30.254,"lo1":-89.0895,"lo2":-89.0444,"dy":0.0017,"dx":0.0017,"nx":28,"ny":28,"refTime":"2024-03-13T03:00:00:Z","depth":0,"parameterNumber":2,"parameterNumberName":"U-component_of_WINDS"},"data":[0,0,0,0,0,0,0,0,0,0,0,0,0,0,0,0,0,0,0,0,0,0,0,0,0,0,0,0,0,0,0,0,0,0,0,0,0,0,0,0,0,0,0,0,0,0,0,0,0,0,0,0,0,0,0,0,0,0,-5.583,-5.5831,0,-5.5968,-5.597,-5.5972,-5.5934,-5.5931,-5.5928,-5.5925,-5.6066,-5.6072,-5.6079,0,0,0,0,0,0,0,0,0,0,0,0,0,-5.5533,-5.5538,-5.583,-5.5831,-5.5833,-5.5968,-5.597,-5.5972,-5.5934,-5.5931,-5.5927,-5.5924,-5.6064,-5.6071,-5.6079,0,0,0,0,0,0,0,0,0,0,0,0,0,-5.5665,-5.554,-5.5829,-5.583,-5.5832,-5.5968,-5.597,-5.5972,-5.5935,-5.5931,-5.5926,-5.5922,-5.6061,-5.6071,-5.608,-5.6223,0,0,-5.6109,-5.6113,0,0,0,0,0,0,0,0,-5.5658,-5.5676,-5.5829,-5.5831,-5.5833,-5.5929,-5.5917,-5.6056,-5.5936,-5.5896,-5.5925,-5.592,-5.6024,-5.6036,-5.6071,-5.6229,-5.6235,-5.611,-5.6116,-5.612,-5.6123,0,0,0,0,0,0,0,-5.5649,-5.567,-5.5884,-5.5831,-5.5833,-5.5824,-5.5839,-5.5943,-5.5982,-5.5899,-5.5896,-5.5914,-5.6024,-5.6062,-5.6074,-5.6237,-5.611,-5.6118,-5.6124,-5.6128,-5.6521,-5.6525,0,0,0,0,0,0,-5.5638,-5.5663,-5.588,-5.5889,-5.5733,-5.5833,-5.5849,-5.5903,-5.598,-5.5988,-5.5917,-5.5911,-5.6048,-5.6063,-5.6079,-5.6251,-5.612,-5.6129,-5.6134,-5.6516,-5.6522,-5.6527,0,0,0,0,0,0,-5.5632,-5.5658,-5.5874,-5.5775,-5.5802,-5.5843,-5.5903,-5.5907,-5.5945,-5.5994,-5.6001,-5.5949,-5.6045,-5.6066,-5.6188,-5.6255,-5.6133,-5.6142,-5.6511,-5.6518,-5.6525,-5.6596,0,0,0,0,0,0,-5.5624,-5.5656,-5.571,-5.5777,-5.5808,-5.598,-5.5907,-5.5913,-5.5962,-5.5956,-5.6026,-5.6033,-5.6044,-5.6174,-5.6197,-5.6266,-5.6149,-5.6505,-5.6514,-5.6522,-5.6587,-5.6604,-5.6619,0,0,0,0,0,-5.5613,-5.5724,-5.5713,-5.5739,-5.5876,-5.5984,-5.6002,-5.6012,-5.5968,-5.6022,-5.6054,-5.6031,-5.6245,-5.6187,-5.6213,-5.6285,-5.65,-5.6511,-5.6522,-5.658,-5.6601,-5.6618,0,0,0,0,0,0,-5.5662,-5.5732,-5.5721,-5.5856,-5.5915,-5.5977,-5.6046,-5.6034,-5.6105,-5.6096,-5.6106,-5.6122,-5.6247,-5.6279,-5.6212,-5.6429,-5.6366,-5.6383,-5.6402,-5.6422,-5.6437,-5.6425,-5.6157,0,0,0,0,0,-5.5689,-5.5771,-5.5828,-5.5942,-5.5973,-5.6005,-5.6053,-5.6056,-5.6117,-5.6141,-5.6181,-5.6241,-5.6322,-5.6374,-5.6451,-5.6594,-5.6608,-5.6657,-5.6673,-5.6685,-5.6698,-5.6776,-5.6798,-5.6562,-5.6562,-5.6562,0,0,-5.5744,-5.5793,-5.5844,-5.5954,-5.5999,-5.6084,-5.6026,-5.6117,-5.6181,-5.6154,-5.6271,-5.6304,-5.6372,-5.6504,-5.6565,-5.6535,-5.6768,-5.6699,-5.6709,-5.6715,-5.6789,-5.6812,-5.6831,-5.6569,-5.6568,-5.6567,0,0,-5.5888,-5.5934,-5.6034,-5.6082,-5.6153,-5.6174,-5.6199,-5.6265,-5.6285,-5.6404,-5.6387,-5.6463,-5.6602,-5.665,-5.6693,-5.6861,-5.6842,-5.6887,-5.6967,-5.7043,-5.7061,-5.7078,-5.7136,-5.7157,-5.69,-5.69,-5.69,0,-5.5947,-5.6074,-5.6087,-5.6181,-5.623,-5.6213,-5.6315,-5.6361,-5.6453,-5.6487,-5.6453,-5.6629,-5.6673,-5.6817,-5.6858,-5.6894,-5.6922,-5.6876,-5.7058,-5.7075,-5.709,-5.7146,-5.7168,-5.6905,-5.6905,-5.6904,-5.6904,0,-5.6144,-5.6233,-5.6305,-5.6396,-5.6454,-5.6551,-5.6579,-5.6636,-5.6637,-5.6662,-5.6784,-5.6837,-5.6925,-5.6961,-5.6961,-5.7106,-5.7085,-5.7055,-5.6992,-5.7117,-5.7169,-5.7191,-5.6912,-5.691,-5.6909,-5.6908,0,0,-5.6316,-5.6416,-5.6442,-5.6483,-5.6563,-5.6631,-5.673,-5.6817,-5.6865,-5.6932,-5.7013,-5.7134,-5.7107,-5.7156,-5.7163,-5.723,-5.7359,-5.7192,-5.7194,-5.7219,-5.7521,-5.754,-5.7564,-5.7349,-5.7353,-5.7356,-5.7514,0,-5.6464,-5.6636,-5.6653,-5.6807,-5.6889,-5.6877,-5.6963,-5.7021,-5.7049,-5.7124,-5.7155,-5.7239,-5.7199,-5.7228,-5.7295,-5.7329,-5.7419,-5.7318,-5.7423,-5.7427,-5.7403,-5.7592,-5.7612,-5.7758,-5.7535,-5.7538,-5.7541,0,-5.6659,-5.6732,-5.6894,-5.6964,-5.7,-5.7076,-5.7158,-5.723,-5.7297,-5.7313,-5.737,-5.7369,-5.7471,-5.7408,-5.7548,-5.7479,-5.7524,-5.7548,-5.7554,-5.7561,-5.7488,-5.7601,-5.7805,-5.7826,-5.7574,-5.7571,-5.7569,0,-5.6765,-5.6905,-5.702,-5.7057,-5.7142,-5.7196,-5.7234,-5.7297,-5.7349,-5.7422,-5.7456,-5.754,-5.7585,-5.765,-5.7672,-5.7624,-5.7811,-5.775,-5.7826,-5.7825,-5.7861,-5.7858,-5.8072,-5.7897,-5.7897,-5.7896,-5.7896,0,-5.6927,-5.7026,-5.7069,-5.714,-5.7252,-5.7272,-5.7382,-5.7417,-5.7474,-5.7551,-5.7548,-5.7621,-5.7647,-5.7725,-5.7743,-5.7856,-5.7877,-5.7892,-5.7895,-5.789,-5.7888,-5.7916,-5.7905,-5.7902,-5.7901,-5.7899,-5.7898,0,-5.7062,-5.7095,-5.722,-5.7292,-5.7313,-5.7392,-5.7453,-5.7522,-5.7551,-5.7649,-5.7674,-5.7719,-5.7811,-5.7841,-5.7951,-5.7964,-5.8094,-5.809,-5.8071,-5.8071,-5.8144,-5.8135,-5.8381,-5.8413,-5.822,-5.8222,-5.8223,0,-5.716,-5.7237,-5.7318,-5.7371,-5.7411,-5.7495,-5.7549,-5.7574,-5.763,-5.7714,-5.7773,-5.7864,-5.7937,-5.8085,-5.8127,-5.8213,-5.8208,-5.8289,-5.8221,-5.8214,-5.8206,-5.82,-5.8207,-5.83,-5.8302,-5.8303,-5.8305,0,-5.7331,-5.7345,-5.7423,-5.7509,-5.7574,-5.7642,-5.7708,-5.7751,-5.7785,-5.7849,-5.7943,-5.8001,-5.8116,-5.8206,-5.8294,-5.8333,-5.8324,-5.8327,-5.8349,-5.8342,-5.8327,-5.8333,-5.8102,-5.832,-5.8318,-5.8317,-5.8316,-5.8316,-5.7449,-5.7517,-5.7585,-5.7673,-5.7726,-5.7789,-5.7857,-5.7897,-5.7976,-5.8071,-5.8081,-5.8183,-5.8251,-5.8368,-5.8412,-5.8492,-5.8469,-5.8501,-5.8508,-5.8514,-5.8519,-5.8318,-5.8509,-5.8508,-5.8508,-5.8507,-5.8507,0,-5.7617,-5.7662,-5.7743,-5.7836,-5.7906,-5.7896,-5.797,-5.8028,-5.8118,-5.8182,-5.8256,-5.8366,-5.8454,-5.8506,-5.8595,-5.865,-5.8648,-5.8672,-5.8666,-5.8675,-5.8535,-5.8506,-5.8671,-5.8671,-5.8671,-5.8671,-5.8671,-5.8671,-5.7712,-5.7826,-5.7849,-5.799,-5.8034,-5.8134,-5.8177,-5.8235,-5.8287,-5.8409,-5.8484,-5.8518,-5.8578,-5.8672,-5.8753,-5.8767,-5.8798,-5.8824,-5.8834,-5.8702,-5.8685,-5.8668,-5.8641,-5.8831,-5.8832,-5.8966,-5.8967,-5.8968]},{"header":{"parameterUnit":"m.s-1","parameterCategory":1,"la1":30.2991,"la2":30.254,"lo1":-89.0895,"lo2":-89.0444,"dy":0.0017,"dx":0.0017,"nx":28,"ny":28,"refTime":"2024-03-13T03:00:00:Z","depth":0,"parameterNumber":3,"parameterNumberName":"V-component_of_WINDS"},"data":[0,0,0,0,0,0,0,0,0,0,0,0,0,0,0,0,0,0,0,0,0,0,0,0,0,0,0,0,0,0,0,0,0,0,0,0,0,0,0,0,0,0,0,0,0,0,0,0,0,0,0,0,0,0,0,0,0,0,2.0807,2.0808,0,2.0863,2.0864,2.0864,2.0898,2.0899,2.0899,2.0899,2.0953,2.0954,2.0955,0,0,0,0,0,0,0,0,0,0,0,0,0,2.0728,2.073,2.0807,2.0808,2.0808,2.0863,2.0864,2.0864,2.0898,2.0899,2.0899,2.0899,2.0952,2.0954,2.0955,0,0,0,0,0,0,0,0,0,0,0,0,0,2.0771,2.073,2.0807,2.0832,2.0835,2.0863,2.0864,2.0865,2.0898,2.0899,2.0899,2.0899,2.0952,2.0953,2.0955,2.0961,0,0,2.0961,2.0962,0,0,0,0,0,0,0,0,2.0769,2.0774,2.0828,2.083,2.0834,2.0874,2.0856,2.0897,2.0898,2.0874,2.0899,2.0899,2.0926,2.093,2.094,2.0964,2.0966,2.0961,2.0962,2.0963,2.0964,0,0,0,0,0,0,0,2.0766,2.0772,2.0829,2.0828,2.0832,2.084,2.0847,2.0864,2.0898,2.0876,2.0879,2.0885,2.0928,2.0938,2.0941,2.0967,2.0961,2.0963,2.0964,2.0965,2.1002,2.1002,0,0,0,0,0,0,2.0759,2.0769,2.0827,2.0831,2.0801,2.0841,2.0849,2.0861,2.0898,2.0904,2.0885,2.0887,2.0935,2.0939,2.0943,2.0955,2.0963,2.0965,2.0966,2.1002,2.1002,2.1002,0,0,0,0,0,0,2.0757,2.0764,2.0825,2.0801,2.0809,2.0842,2.0856,2.0862,2.0872,2.0904,2.091,2.0889,2.0935,2.0941,2.0958,2.0957,2.0966,2.0968,2.1002,2.1002,2.1002,2.0977,0,0,0,0,0,0,2.0755,2.0763,2.0766,2.0801,2.081,2.0839,2.0856,2.0863,2.0876,2.0878,2.091,2.0915,2.0936,2.0955,2.096,2.096,2.0969,2.1003,2.1002,2.1002,2.0978,2.0976,2.0974,0,0,0,0,0,2.0752,2.0755,2.0766,2.0772,2.0815,2.0839,2.0844,2.0868,2.0875,2.0879,2.09,2.0914,2.0957,2.0956,2.0962,2.0963,2.1003,2.1002,2.1002,2.0979,2.0976,2.0974,0,0,0,0,0,0,2.0717,2.076,2.0772,2.0787,2.0809,2.0844,2.0849,2.0864,2.0884,2.0886,2.0914,2.0921,2.0935,2.0951,2.095,2.0972,2.0981,2.0982,2.0962,2.0959,2.0958,2.0953,2.0971,0,0,0,0,0,2.0711,2.0728,2.0764,2.0773,2.0784,2.0815,2.0826,2.0843,2.0867,2.0876,2.0898,2.092,2.0939,2.095,2.0968,2.098,2.0989,2.0984,2.0982,2.098,2.0981,2.0991,2.099,2.1001,2.1001,2.1001,0,0,2.0698,2.0724,2.0732,2.0767,2.0786,2.0803,2.0822,2.0838,2.0851,2.0878,2.0896,2.0914,2.094,2.0955,2.0963,2.0968,2.098,2.098,2.0978,2.098,2.099,2.0989,2.0988,2.1001,2.1001,2.1001,0,0,2.0685,2.0705,2.0717,2.0737,2.0767,2.0788,2.079,2.0824,2.0838,2.0857,2.0879,2.0894,2.0924,2.0943,2.0956,2.0954,2.0968,2.0959,2.0949,2.0958,2.0957,2.0956,2.0957,2.0956,2.0959,2.0959,2.0959,0,2.0665,2.0692,2.072,2.0736,2.0752,2.0779,2.0792,2.0809,2.0843,2.0852,2.0859,2.09,2.0919,2.094,2.094,2.095,2.0954,2.0955,2.0955,2.0955,2.0954,2.0955,2.0955,2.0958,2.0958,2.0958,2.0958,0,2.0667,2.0686,2.0691,2.0726,2.0742,2.0756,2.0786,2.0799,2.0815,2.0836,2.0856,2.0881,2.0906,2.0913,2.0927,2.0937,2.0939,2.095,2.096,2.0952,2.0953,2.0953,2.0956,2.0956,2.0957,2.0957,0,0,2.0631,2.0684,2.0685,2.0703,2.074,2.0754,2.077,2.0797,2.0808,2.0831,2.0845,2.0872,2.0883,2.0899,2.0917,2.0925,2.0923,2.0935,2.0936,2.0932,2.0936,2.0929,2.0928,2.0933,2.0934,2.0934,2.0935,0,2.0623,2.0654,2.0682,2.0703,2.0721,2.075,2.0764,2.0788,2.0808,2.0826,2.0848,2.0867,2.0879,2.0889,2.0899,2.0921,2.0924,2.0922,2.0947,2.0948,2.094,2.0929,2.092,2.092,2.0935,2.0935,2.0935,0,2.0618,2.0643,2.0666,2.0704,2.0713,2.0725,2.0754,2.0771,2.0799,2.0813,2.0832,2.0852,2.0871,2.0879,2.0905,2.0903,2.0915,2.0928,2.0929,2.0932,2.0941,2.0933,2.092,2.092,2.0936,2.0936,2.0936,0,2.0591,2.063,2.065,2.0664,2.0708,2.0716,2.0735,2.0764,2.0779,2.0804,2.0814,2.084,2.0854,2.0873,2.0899,2.0903,2.0923,2.0934,2.0936,2.0935,2.0938,2.0938,2.0928,2.0945,2.0945,2.0945,2.0945,0,2.058,2.0593,2.0639,2.0651,2.0668,2.0699,2.0715,2.0736,2.0762,2.0779,2.0804,2.0819,2.0853,2.0872,2.0893,2.0912,2.0918,2.093,2.0935,2.0928,2.0927,2.0936,2.0937,2.0945,2.0945,2.0945,2.0945,0,2.0551,2.0582,2.0607,2.0648,2.0659,2.0669,2.0705,2.0718,2.074,2.0762,2.0768,2.0803,2.0828,2.0856,2.0889,2.0903,2.0921,2.0929,2.0912,2.0915,2.0916,2.0916,2.0913,2.0915,2.093,2.0929,2.0929,0,2.0542,2.0554,2.0598,2.0612,2.0631,2.0653,2.067,2.0702,2.0718,2.0754,2.0763,2.079,2.0813,2.085,2.0878,2.0904,2.0913,2.091,2.0916,2.091,2.0914,2.0913,2.0915,2.0908,2.0908,2.0907,2.0907,0,2.0524,2.054,2.0563,2.0594,2.0614,2.0639,2.0664,2.0674,2.0712,2.0729,2.0755,2.0773,2.0809,2.0835,2.0865,2.0884,2.0902,2.0905,2.0907,2.09,2.089,2.0897,2.0908,2.0905,2.0905,2.0905,2.0905,2.0905,2.0506,2.0519,2.0553,2.0579,2.0603,2.0627,2.0642,2.0668,2.0691,2.0724,2.0742,2.0768,2.0799,2.0841,2.086,2.0881,2.0886,2.0889,2.089,2.089,2.0889,2.0887,2.0886,2.0886,2.0886,2.0886,2.0886,0,2.0489,2.0514,2.0538,2.0575,2.0596,2.0614,2.0644,2.066,2.0684,2.0711,2.0735,2.0766,2.0793,2.0824,2.0853,2.0864,2.0873,2.087,2.087,2.0874,2.0881,2.0877,2.0863,2.0863,2.0863,2.0863,2.0863,2.0863,2.0484,2.0507,2.0527,2.0563,2.0587,2.0615,2.0631,2.0653,2.0676,2.0711,2.0734,2.0755,2.0785,2.0816,2.0842,2.085,2.086,2.0855,2.0866,2.0871,2.0873,2.0875,2.0872,2.0857,2.0857,2.0858,2.0858,2.0858]}]]